STARLINK-1055 (44760 NORAD) Tracking and Keplerian Element Data

This shows tracking and keplerian element data for the satellite.

Feedback or suggestion? Click here.




ElementValue
Catalog44760
NameSTARLINK-1055
Epoch Orbit2090
Epoch Day87.91667824
Epoch Year2020
RAAN260.4209
Inclination53.0289
Eccentricity0.0002258
Argument of Perigee97.8393
Mean Anonmoly272.05
Mean Motion15.05563222
Decay Rate0.00036813
L11 44760U 19074AZ 20087.91667824 .00036813 00000-0 25337-2 0 9995
L22 44760 53.0289 260.4209 0002258 97.8393 272.0500 15.05563222 20907

Live tracking and technical data element details for STARLINK-1055 (NORAD 44760). STARLINK-1055 can be tracked NOW for your location showing map with azimuth and elevation plus other details from your city location.

Track the satellite on the map from your city or location and see movement details for azimuth, elevation, latitude, longitude, range, height, and movement on the map or in text.







IsCatalogInMostPopularTable: catalog: 44760, numindb: 39
Update: records affected: 1



GetName: 44760 STARLINK-1055

Hit Count: updated at: Mon, 30 Mar 2020 12:04:27 GMT